George, South Africa

6:02 PM SAST on August 16, 2017 (GMT +0200)
George

Weather History for FAGG - November, 2014

Change the Weather History Date:

Wednesday, November 12, 2014

  Actual Average Record
Temperature  
Mean Temperature 62 °F -  
Max Temperature 66 °F 70 °F 98 °F (2002)
Min Temperature 57 °F 55 °F 46 °F (2011)
Degree Days  
Heating Degree Days 2    
Growing Degree Days 12 (Base 50)    
Moisture  
Dew Point 58 °F    
Average Humidity 85    
Maximum Humidity 100    
Minimum Humidity 63    
Precipitation  
Precipitation 0.20 in - - ()
Sea Level Pressure  
Sea Level Pressure 29.70 in    
Wind  
Wind Speed 5 mph ()    
Max Wind Speed 18 mph    
Max Gust Speed -    
Visibility 6.8 miles    
Events Rain , Thunderstorm    
Averages and records for this station are not official NWS values.
T = Trace of Precipitation, MM = Missing Value Source: Averaged Metar Reports

Daily Weather History Graph

Daily Weather History Graph

Search for Another Location

Airport or City:

Trip Planner

Search our weather history database for the weather conditions in past years. The results will help you decide how hot, cold, wet, or windy it might be!

Date:

Astronomy

Nov. 12, 2014 Rise Set
Actual Time 5:20 AM SAST 7:08 PM SAST
Civil Twilight 4:53 AM SAST 7:36 PM SAST
Nautical Twilight 4:20 AM SAST 8:09 PM SAST
Astronomical Twilight 3:45 AM SAST 8:44 PM SAST
Moon 11:55 PM SAST (11/12) 10:01 AM SAST (11/12)
Length of Visible Light 14h 42m
Length of Day
13h 48m
Waning Gibbous, 71% of the Moon is Illuminated
Nov 12
Waning Gibbous
Nov 14
Last Quarter
Nov 22
New
Nov 29
First Quarter
Dec 6
Full

Hourly Weather History & Observations

Time (SAST) Temp. Dew Point Humidity Pressure Visibility Wind Dir Wind Speed Gust Speed Precip Events Conditions
12:00 AM 60.8 °F 59.0 °F 94% 29.77 in 4.3 mi Variable 1.2 mph - N/A   Mostly Cloudy
1:00 AM 60.8 °F 59.0 °F 94% 29.74 in 4.3 mi WNW 3.5 mph - N/A   Mostly Cloudy
2:00 AM 61 °F 60 °F 93% 29.72 in 6 mi NW 4.6 mph - -   Overcast
2:00 AM 60.8 °F 59.0 °F 94% 29.71 in 5.6 mi NNW 3.5 mph - N/A   Overcast
3:00 AM 62.6 °F 60.8 °F 94% 29.71 in 6.2 mi WNW 5.8 mph - N/A   Overcast
4:00 AM 64.4 °F 60.8 °F 88% 29.68 in 6.2 mi NNE 4.6 mph - N/A   Overcast
5:00 AM 64 °F 61 °F 87% 29.69 in 12 mi ESE 4.6 mph - - Rain Light Rain
5:00 AM 64.4 °F 60.8 °F 88% 29.68 in 6.2 mi ESE 5.8 mph - N/A Rain Light Rain
6:00 AM 73.4 °F 64.4 °F 73% 29.65 in 6.2 mi NNE 13.8 mph - N/A Rain Light Rain
7:00 AM 69.8 °F 60.8 °F 73% 29.65 in 6.2 mi SE 8.1 mph - N/A   Scattered Clouds
8:00 AM 65 °F 61 °F 83% 29.69 in 12 mi WSW 8.1 mph - -   Scattered Clouds
8:00 AM 66.2 °F 60.8 °F 83% 29.68 in 6.2 mi WSW 5.8 mph - N/A   Partly Cloudy
9:00 AM 60.8 °F 60.8 °F 100% 29.71 in 3.7 mi WSW 6.9 mph - N/A Rain Light Rain
10:00 AM 60.8 °F 59.0 °F 94% 29.71 in 1.7 mi West 18.4 mph - N/A Rain , Thunderstorm Thunderstorms and Rain
11:00 AM 64 °F 60 °F 84% 29.73 in 12 mi WSW 12.7 mph - -   Partly Cloudy
11:00 AM 64.4 °F 60.8 °F 88% 29.71 in 6.2 mi WSW 12.7 mph - N/A   Mostly Cloudy
12:00 PM 62.6 °F 59.0 °F 88% 29.68 in 6.2 mi SW 8.1 mph - N/A   Mostly Cloudy
1:00 PM 60.8 °F 57.2 °F 88% 29.68 in 6.2 mi South 9.2 mph - N/A   Mostly Cloudy
2:00 PM 61 °F 57 °F 81% 29.69 in 12 mi SSE 5.8 mph - -   Partly Cloudy
2:00 PM 60.8 °F 55.4 °F 82% 29.68 in 6.2 mi SSE 6.9 mph - N/A   Overcast
3:00 PM 62.6 °F 57.2 °F 82% 29.68 in 6.2 mi SE 3.5 mph - N/A   Overcast
4:00 PM 62.6 °F 53.6 °F 72% 29.68 in 6.2 mi South 3.5 mph - N/A   Mostly Cloudy
5:00 PM 64 °F 54 °F 63% 29.67 in 12 mi South 2.3 mph - -   Overcast
5:00 PM 64.4 °F 53.6 °F 68% 29.68 in 6.2 mi Variable 2.3 mph - N/A   Mostly Cloudy
6:00 PM 62.6 °F 55.4 °F 77% 29.68 in 6.2 mi WNW 5.8 mph - N/A   Mostly Cloudy
7:00 PM 60.8 °F 57.2 °F 88% 29.68 in 6.2 mi NNE 4.6 mph - N/A   Mostly Cloudy
8:00 PM 61 °F 57 °F 82% 29.71 in 6 mi NNE 3.5 mph - - Rain Light Rain
8:00 PM 60.8 °F 57.2 °F 88% 29.71 in 6.2 mi NNE 3.5 mph - N/A Rain Light Rain
9:00 PM 60.8 °F 57.2 °F 88% 29.71 in 6.2 mi North 6.9 mph - N/A Rain Light Rain
10:00 PM 59.0 °F 57.2 °F 94% 29.71 in 6.2 mi NE 4.6 mph - N/A Rain Light Rain
11:00 PM 57.2 °F 55.4 °F 94% 29.71 in 6.2 mi Variable 2.3 mph - N/A   Mostly Cloudy